Skagway, AK

7:58 PM AKDT on June 25, 2017 (GMT -0800)
Skagway

Weather History for PAGY - January, 2014

Change the Weather History Date:

Thursday, January 9, 2014

  Actual Average Record
Temperature  
Mean Temperature 36 °F -  
Max Temperature 39 °F 27 °F 46 °F (1985)
Min Temperature 33 °F 20 °F -7 °F (1969)
Degree Days  
Heating Degree Days 29    
Moisture  
Dew Point 32 °F    
Average Humidity 86    
Maximum Humidity 92    
Minimum Humidity 79    
Precipitation  
Precipitation 0.11 in - - ()
Sea Level Pressure  
Sea Level Pressure 29.23 in    
Wind  
Wind Speed 5 mph (SSW)    
Max Wind Speed 25 mph    
Max Gust Speed 34 mph    
Visibility 6 miles    
Events Rain , Snow    
Averages and records for this station are not official NWS values.
T = Trace of Precipitation, MM = Missing Value Source: NWS Daily Summary

Daily Weather History Graph

Daily Weather History Graph

Search for Another Location

Airport or City:

Trip Planner

Search our weather history database for the weather conditions in past years. The results will help you decide how hot, cold, wet, or windy it might be!

Date:

Astronomy

Jan. 09, 2014 Rise Set
Actual Time 8:52 AM AKST 3:25 PM AKST
Civil Twilight 7:59 AM AKST 4:18 PM AKST
Nautical Twilight 7:05 AM AKST 5:12 PM AKST
Astronomical Twilight 6:15 AM AKST 6:02 PM AKST
Moon 11:31 AM AKST (1/9) 2:28 AM AKST (1/9)
Length of Visible Light 8h 19m
Length of Day
6h 33m
Waxing Gibbous, 67% of the Moon is Illuminated
Jan 9
Waxing Gibbous
Jan 15
Full
Jan 23
Last Quarter
Jan 30
New
Feb 6
First Quarter

Hourly Weather History & Observations

Time (AKST) Temp. Windchill Dew Point Humidity Pressure Visibility Wind Dir Wind Speed Gust Speed Precip Events Conditions
12:53 AM 35.1 °F - 30.9 °F 85% 29.18 in 10.0 mi Calm Calm - N/A   Overcast
1:53 AM 34.0 °F - 30.9 °F 89% 29.19 in 10.0 mi Calm Calm - 0.00 in   Overcast
3:53 AM 33.1 °F - 30.0 °F 89% 29.18 in 8.0 mi Calm Calm - 0.00 in Snow Light Snow
4:53 AM 33.1 °F - 30.9 °F 92% 29.17 in 5.0 mi Calm Calm - 0.00 in Snow Light Snow
5:20 AM 33.8 °F - 30.2 °F 87% 29.17 in 4.0 mi Calm Calm - 0.01 in Snow Light Snow
5:31 AM 33.8 °F - 30.2 °F 87% 29.17 in 2.0 mi Calm Calm - 0.01 in Snow Light Snow
5:39 AM 33.8 °F - 30.2 °F 87% 29.16 in 1.5 mi Calm Calm - 0.01 in Snow Light Snow
5:53 AM 33.1 °F - 30.0 °F 89% 29.17 in 1.8 mi Calm Calm - 0.02 in Snow Light Snow
6:07 AM 33.8 °F 30.8 °F 30.2 °F 87% 29.17 in 2.0 mi ENE 3.5 mph - 0.00 in Snow Light Snow
6:23 AM 33.8 °F 30.8 °F 28.4 °F 81% 29.17 in 4.0 mi NNE 3.5 mph - 0.00 in Snow Light Snow
6:53 AM 33.1 °F - 30.0 °F 89% 29.16 in 8.0 mi Calm Calm - 0.00 in   Overcast
7:43 AM 33.8 °F - 30.2 °F 87% 29.18 in 2.5 mi Calm Calm - 0.01 in Snow Light Snow
7:53 AM 33.1 °F - 30.9 °F 92% 29.19 in 3.0 mi Calm Calm - 0.01 in Snow Light Snow
8:10 AM 33.8 °F - 30.2 °F 87% 29.19 in 2.0 mi Calm Calm - 0.00 in Snow Light Snow
8:20 AM 33.8 °F - 30.2 °F 87% 29.19 in 1.8 mi Calm Calm - 0.01 in Snow Light Snow
8:45 AM 33.8 °F - 30.2 °F 87% 29.20 in 1.5 mi Calm Calm - 0.02 in Snow Light Snow
8:53 AM 33.1 °F 30.0 °F 30.0 °F 89% 29.19 in 1.2 mi NE 3.5 mph - 0.02 in Snow Light Snow
9:09 AM 33.8 °F - 30.2 °F 87% 29.20 in 1.5 mi Calm Calm - 0.01 in Snow Light Snow
9:39 AM 33.8 °F - 30.2 °F 87% 29.21 in 1.0 mi Calm Calm - 0.03 in Snow Light Snow
9:53 AM 33.1 °F - 30.9 °F 92% 29.22 in 1.2 mi Calm Calm - 0.04 in Snow Light Snow
10:02 AM 33.8 °F - 30.2 °F 87% 29.22 in 1.5 mi Calm Calm - 0.00 in Snow Light Snow
10:13 AM 33.8 °F - 30.2 °F 87% 29.22 in 1.2 mi Calm Calm - 0.01 in Snow Light Snow
10:24 AM 33.8 °F - 30.2 °F 87% 29.22 in 2.0 mi Calm Calm - 0.01 in Snow Light Snow
10:49 AM 35.6 °F 27.5 °F 32.0 °F 87% 29.21 in 4.0 mi SSW 11.5 mph 19.6 mph 0.02 in Rain Light Rain
10:53 AM 36.0 °F 27.5 °F 33.1 °F 89% 29.22 in 4.0 mi SSW 12.7 mph 20.7 mph 0.02 in Rain Light Rain
11:09 AM 37.4 °F 28.2 °F 33.8 °F 87% 29.22 in 6.0 mi SSW 16.1 mph 27.6 mph 0.00 in   Overcast
11:53 AM 37.9 °F 27.9 °F 34.0 °F 86% 29.22 in 10.0 mi SSW 19.6 mph 28.8 mph 0.00 in   Overcast
12:22 PM 37.4 °F 25.9 °F 33.8 °F 87% 29.21 in 10.0 mi SSW 25.3 mph 32.2 mph N/A   Overcast
12:53 PM 37.9 °F 27.1 °F 33.1 °F 83% 29.23 in 10.0 mi SSW 23.0 mph 34.5 mph N/A   Overcast
2:32 PM 39.2 °F 29.6 °F 33.8 °F 81% 29.26 in 10.0 mi SSW 19.6 mph 27.6 mph N/A   Overcast
2:51 PM 39.2 °F 29.3 °F 33.8 °F 81% 29.26 in 10.0 mi SSW 20.7 mph 28.8 mph N/A   Overcast
2:53 PM 39.0 °F 29.3 °F 33.1 °F 79% 29.27 in 10.0 mi SSW 19.6 mph 27.6 mph N/A   Overcast
3:53 PM 39.0 °F 28.8 °F 33.1 °F 79% 29.29 in 10.0 mi SSW 21.9 mph 29.9 mph N/A   Overcast
4:53 PM 37.9 °F 27.1 °F 33.1 °F 83% 29.29 in 10.0 mi SSW 23.0 mph 29.9 mph N/A   Mostly Cloudy
5:53 PM 37.9 °F 26.6 °F 33.1 °F 83% 29.29 in 10.0 mi SSW 25.3 mph 32.2 mph N/A   Clear
6:53 PM 37.9 °F 27.1 °F 33.1 °F 83% 29.30 in 10.0 mi SSW 23.0 mph 31.1 mph N/A   Partly Cloudy
7:53 PM 37.9 °F 27.6 °F 33.1 °F 83% 29.31 in 10.0 mi SSW 20.7 mph 27.6 mph N/A   Partly Cloudy
8:53 PM 37.9 °F 28.5 °F 33.1 °F 83% 29.33 in 10.0 mi SSW 17.3 mph 25.3 mph N/A   Mostly Cloudy
9:53 PM 37.9 °F 28.5 °F 33.1 °F 83% 29.35 in 10.0 mi SSW 17.3 mph 25.3 mph N/A   Mostly Cloudy
10:41 PM 37.4 °F 28.2 °F 33.8 °F 87% 29.36 in 10.0 mi SSW 16.1 mph 24.2 mph N/A   Overcast
10:53 PM 37.9 °F 28.9 °F 33.1 °F 83% 29.37 in 10.0 mi SSW 16.1 mph 25.3 mph N/A   Overcast
11:41 PM 37.4 °F 27.2 °F 33.8 °F 87% 29.37 in 10.0 mi SSW 19.6 mph 26.5 mph N/A   Overcast
11:53 PM 37.9 °F 29.2 °F 33.1 °F 83% 29.38 in 10.0 mi SSW 15.0 mph 24.2 mph N/A   Mostly Cloudy